SBU212 TFFJ-TNCM

Flight info

Callsign SBU212
Flight time 0h 8m
Altitude 3000
Route PJM
Aircraft C208/L-SDFGR/C

Departure

Time 2026-05-05 13:02
Airport St. Jean Airport (TFFJ)

Arrival

Time 2026-05-05 13:10
Airport Princess Juliana International Airport (TNCM)
Time Latitude Longitude Altitude Speed Heading
2026-05-05 12:53 17.90373 -62.84474 17 ft 0 kts 84°
2026-05-05 13:00 17.90390 -62.84505 46 ft 14 kts 264°
2026-05-05 13:00 17.90388 -62.84592 52 ft 13 kts 270°
2026-05-05 13:01 17.90432 -62.84635 50 ft 0 kts 91°
2026-05-05 13:01 17.90432 -62.84603 49 ft 25 kts 89°
2026-05-05 13:01 17.90442 -62.84187 41 ft 84 kts 89°
2026-05-05 13:01 17.90654 -62.83579 314 ft 98 kts 49°
2026-05-05 13:02 17.91370 -62.83414 618 ft 121 kts 355°
2026-05-05 13:02 17.92016 -62.83989 864 ft 133 kts 295°
2026-05-05 13:02 17.92231 -62.84608 954 ft 140 kts 285°
2026-05-05 13:02 17.92453 -62.85602 1241 ft 137 kts 280°
2026-05-05 13:03 17.92661 -62.86623 1336 ft 153 kts 279°
2026-05-05 13:03 17.92877 -62.87778 1245 ft 165 kts 279°
2026-05-05 13:03 17.93073 -62.88987 1160 ft 170 kts 272°
2026-05-05 13:03 17.93325 -62.90188 1048 ft 168 kts 292°
2026-05-05 13:04 17.93675 -62.91340 1010 ft 164 kts 288°
2026-05-05 13:04 17.94004 -62.92470 998 ft 160 kts 289°
2026-05-05 13:04 17.94330 -62.93581 997 ft 159 kts 289°
2026-05-05 13:04 17.94666 -62.94686 1017 ft 160 kts 288°
2026-05-05 13:05 17.95048 -62.95806 1013 ft 165 kts 289°
2026-05-05 13:05 17.95433 -62.96945 1012 ft 166 kts 289°
2026-05-05 13:05 17.95828 -62.98092 1012 ft 168 kts 290°
2026-05-05 13:05 17.96211 -62.99260 984 ft 170 kts 289°
2026-05-05 13:06 17.96597 -63.00437 975 ft 170 kts 289°
2026-05-05 13:06 17.97004 -63.01592 977 ft 167 kts 289°
2026-05-05 13:06 17.97408 -63.02734 978 ft 166 kts 290°
2026-05-05 13:06 17.97798 -63.03878 982 ft 166 kts 289°
2026-05-05 13:07 17.98189 -63.05023 984 ft 167 kts 289°
2026-05-05 13:07 17.98576 -63.06170 973 ft 166 kts 289°
2026-05-05 13:07 17.98945 -63.07326 966 ft 168 kts 289°
2026-05-05 13:07 17.99318 -63.08493 976 ft 170 kts 289°
2026-05-05 13:08 17.99724 -63.09664 994 ft 171 kts 290°
2026-05-05 13:08 18.00130 -63.10846 1003 ft 173 kts 290°
2026-05-05 13:08 18.00588 -63.12002 1055 ft 168 kts 300°
2026-05-05 13:08 18.01324 -63.12929 1024 ft 160 kts 323°
2026-05-05 13:09 18.02218 -63.13436 1019 ft 139 kts 351°
2026-05-05 13:09 18.03116 -63.13435 720 ft 124 kts 25°
2026-05-05 13:09 18.03787 -63.12981 445 ft 108 kts 64°
2026-05-05 13:09 18.03897 -63.12267 152 ft 97 kts 87°
2026-05-05 13:10 18.03994 -63.11601 21 ft 85 kts 81°
2026-05-05 13:10 18.04055 -63.11171 20 ft 19 kts 81°
2026-05-05 13:10 18.04124 -63.11162 20 ft 12 kts 349°
2026-05-05 13:10 18.04158 -63.11115 20 ft 10 kts 62°
2026-05-05 13:11 18.04221 -63.11109 20 ft 2 kts 338°
2026-05-05 13:11 18.04251 -63.11128 19 ft 7 kts 24°
2026-05-05 13:11 18.04251 -63.11098 19 ft 3 kts 206°
2026-05-05 13:11 18.04248 -63.11102 19 ft 0 kts 227°
2026-05-05 14:05 18.04244 -63.11106 19 ft 4 kts 224°
2026-05-05 14:05 18.04226 -63.11173 20 ft 17 kts 264°
2026-05-05 14:05 18.04195 -63.11299 20 ft 13 kts 192°
2026-05-05 14:05 18.04117 -63.11290 19 ft 0 kts 175°
2026-05-05 14:06 18.04091 -63.11287 19 ft 12 kts 174°
2026-05-05 14:06 18.04052 -63.11190 20 ft 31 kts 82°
2026-05-05 14:06 18.04118 -63.10777 52 ft 77 kts 80°
2026-05-05 14:06 18.04237 -63.10191 264 ft 86 kts 81°
2026-05-05 14:07 18.04151 -63.09667 659 ft 70 kts 122°
2026-05-05 14:07 18.03645 -63.09475 891 ft 91 kts 176°
2026-05-05 14:07 18.03039 -63.09710 1181 ft 93 kts 195°
2026-05-05 14:07 18.02412 -63.10040 1374 ft 105 kts 199°
2026-05-05 14:08 18.01803 -63.10453 1694 ft 103 kts 204°
2026-05-05 14:08 18.01202 -63.10925 1959 ft 114 kts 208°
2026-05-05 14:08 18.00611 -63.11497 2249 ft 123 kts 224°
2026-05-05 14:08 17.99907 -63.12035 2398 ft 130 kts 188°
2026-05-05 14:09 17.98961 -63.12244 2506 ft 149 kts 186°
2026-05-05 14:09 17.97923 -63.12538 2581 ft 159 kts 190°
2026-05-05 14:09 17.96849 -63.12874 2572 ft 163 kts 189°
2026-05-05 14:09 17.95758 -63.13200 2536 ft 162 kts 189°
2026-05-05 14:10 17.94676 -63.13516 2532 ft 161 kts 188°
2026-05-05 14:10 17.93585 -63.13818 2520 ft 162 kts 186°
2026-05-05 14:10 17.92501 -63.14121 2475 ft 159 kts 188°
2026-05-05 14:10 17.91453 -63.14431 2468 ft 154 kts 188°
2026-05-05 14:11 17.90431 -63.14727 2474 ft 151 kts 188°
2026-05-05 14:11 17.89425 -63.15013 2487 ft 148 kts 187°
2026-05-05 14:11 17.88437 -63.15292 2491 ft 146 kts 187°
2026-05-05 14:11 17.87450 -63.15568 2498 ft 148 kts 188°
2026-05-05 14:12 17.86453 -63.15848 2501 ft 149 kts 188°
2026-05-05 14:12 17.85448 -63.16130 2511 ft 150 kts 188°
2026-05-05 14:12 17.84439 -63.16416 2504 ft 150 kts 187°
2026-05-05 14:12 17.83435 -63.16701 2483 ft 149 kts 188°
2026-05-05 14:13 17.82437 -63.16983 2490 ft 148 kts 189°
2026-05-05 14:13 17.81447 -63.17263 2496 ft 148 kts 188°
2026-05-05 14:13 17.80455 -63.17545 2497 ft 148 kts 188°
2026-05-05 14:13 17.79459 -63.17826 2492 ft 149 kts 188°
2026-05-05 14:14 17.78454 -63.18109 2488 ft 150 kts 189°
2026-05-05 14:14 17.77461 -63.18389 2488 ft 149 kts 189°
2026-05-05 14:14 17.76469 -63.18670 2475 ft 146 kts 187°
2026-05-05 14:14 17.75543 -63.19152 2484 ft 152 kts 207°
2026-05-05 14:15 17.74671 -63.19791 2489 ft 153 kts 209°
2026-05-05 14:15 17.73801 -63.20452 2451 ft 156 kts 210°
2026-05-05 14:15 17.72905 -63.21154 2284 ft 165 kts 210°
2026-05-05 14:15 17.72007 -63.21864 2083 ft 157 kts 211°
2026-05-05 14:16 17.71150 -63.22526 1872 ft 151 kts 211°
2026-05-05 14:16 17.70325 -63.23190 1662 ft 149 kts 211°
2026-05-05 14:16 17.69524 -63.23865 1469 ft 146 kts 211°
2026-05-05 14:16 17.68757 -63.24437 1275 ft 127 kts 204°
2026-05-05 14:17 17.67999 -63.24817 1118 ft 114 kts 195°
2026-05-05 14:17 17.67302 -63.25118 1068 ft 103 kts 186°
2026-05-05 14:17 17.66675 -63.25136 995 ft 79 kts 152°
2026-05-05 14:17 17.66230 -63.24925 955 ft 70 kts 138°
2026-05-05 14:18 17.65836 -63.24608 869 ft 73 kts 124°
2026-05-05 14:18 17.65575 -63.24152 782 ft 71 kts 115°
2026-05-05 14:18 17.65382 -63.23753 728 ft 54 kts 114°
2026-05-05 14:18 17.65229 -63.23427 613 ft 46 kts 115°
2026-05-05 14:19 17.65040 -63.23113 506 ft 55 kts 114°
2026-05-05 14:19 17.64843 -63.22746 375 ft 58 kts 111°
2026-05-05 14:19 17.64675 -63.22355 213 ft 59 kts 112°
2026-05-05 14:19 17.64529 -63.22024 132 ft 25 kts 112°
2026-05-05 14:20 17.64510 -63.21990 125 ft 5 kts 263°
2026-05-05 14:20 17.64497 -63.22029 132 ft 0 kts 205°
2026-05-05 14:20 17.64485 -63.22043 132 ft 5 kts 243°
2026-05-05 14:20 17.64485 -63.22066 133 ft 0 kts 294°
2026-05-05 14:32 17.64465 -63.22021 126 ft 6 kts 295°
2026-05-05 14:33 17.64466 -63.22021 126 ft 3 kts 321°
2026-05-05 14:33 17.64468 -63.22022 126 ft 0 kts 321°
2026-05-05 14:34 17.64488 -63.22032 132 ft 8 kts
2026-05-05 14:34 17.64543 -63.22068 135 ft 15 kts 293°
2026-05-05 14:35 17.64600 -63.22187 144 ft 16 kts 310°
2026-05-05 14:35 17.64594 -63.22211 144 ft 1 kts 103°
2026-05-05 14:35 17.64589 -63.22193 144 ft 8 kts 112°
2026-05-05 14:35 17.64480 -63.21913 123 ft 72 kts 112°
2026-05-05 14:36 17.64275 -63.21435 489 ft 63 kts 113°
2026-05-05 14:36 17.64101 -63.21020 795 ft 62 kts 111°
2026-05-05 14:36 17.63977 -63.20720 910 ft 72 kts 114°
2026-05-05 14:36 17.63639 -63.20090 1226 ft 82 kts 120°
2026-05-05 14:37 17.63263 -63.19567 1430 ft 95 kts 129°
2026-05-05 14:37 17.62918 -63.19257 1593 ft 104 kts 144°
2026-05-05 14:37 17.62186 -63.19018 1855 ft 114 kts 157°
2026-05-05 14:37 17.61405 -63.18737 1968 ft 126 kts 152°
2026-05-05 14:38 17.60546 -63.18384 1996 ft 138 kts 155°
2026-05-05 14:38 17.59640 -63.18042 2000 ft 138 kts 156°
2026-05-05 14:38 17.58734 -63.17713 1993 ft 137 kts 156°
2026-05-05 14:38 17.57829 -63.17384 1991 ft 138 kts 154°
2026-05-05 14:39 17.56927 -63.17052 1983 ft 137 kts 155°
2026-05-05 14:39 17.56029 -63.16719 2002 ft 137 kts 156°
2026-05-05 14:39 17.55127 -63.16392 2016 ft 138 kts 155°
2026-05-05 14:39 17.54248 -63.16009 2015 ft 136 kts 143°
2026-05-05 14:40 17.53590 -63.15315 2014 ft 134 kts 127°
2026-05-05 14:40 17.53035 -63.14526 2013 ft 135 kts 126°
2026-05-05 14:40 17.52476 -63.13737 2012 ft 135 kts 126°
2026-05-05 14:40 17.51899 -63.12959 2006 ft 135 kts 127°
2026-05-05 14:41 17.51310 -63.12188 2008 ft 135 kts 127°
2026-05-05 14:41 17.50716 -63.11427 2009 ft 135 kts 127°
2026-05-05 14:41 17.50116 -63.10662 1960 ft 138 kts 127°
2026-05-05 14:41 17.49498 -63.09875 1860 ft 141 kts 127°
2026-05-05 14:42 17.48870 -63.09078 1759 ft 143 kts 127°
2026-05-05 14:42 17.48234 -63.08268 1672 ft 145 kts 128°
2026-05-05 14:42 17.47597 -63.07459 1580 ft 146 kts 128°
2026-05-05 14:42 17.46952 -63.06641 1531 ft 144 kts 128°
2026-05-05 14:43 17.46321 -63.05841 1522 ft 141 kts 128°
2026-05-05 14:43 17.45719 -63.05080 1535 ft 124 kts 129°
2026-05-05 14:43 17.45208 -63.04453 1522 ft 105 kts 128°
2026-05-05 14:43 17.44783 -63.03893 1484 ft 92 kts 126°
2026-05-05 14:44 17.44409 -63.03400 1488 ft 83 kts 126°
2026-05-05 14:44 17.43963 -63.02997 1494 ft 94 kts 162°
2026-05-05 14:44 17.43362 -63.03368 1502 ft 120 kts 236°
2026-05-05 14:44 17.43382 -63.04253 1504 ft 129 kts 297°
2026-05-05 14:45 17.44080 -63.04775 1498 ft 124 kts 358°
2026-05-05 14:45 17.44892 -63.04680 1501 ft 112 kts 37°
2026-05-05 14:45 17.45283 -63.04075 1567 ft 96 kts 72°
2026-05-05 14:45 17.45630 -63.03452 1561 ft 104 kts 63°
2026-05-05 14:46 17.46105 -63.02849 1558 ft 111 kts 58°
2026-05-05 14:46 17.46602 -63.02198 1403 ft 115 kts 60°
2026-05-05 14:46 17.47064 -63.01518 1170 ft 113 kts 64°
2026-05-05 14:46 17.47437 -63.00869 984 ft 94 kts 76°
2026-05-05 14:47 17.47799 -63.00311 825 ft 97 kts 54°
2026-05-05 14:47 17.48231 -62.99761 638 ft 96 kts 61°
2026-05-05 14:47 17.48632 -62.99227 430 ft 90 kts 63°
2026-05-05 14:47 17.49038 -62.98711 255 ft 92 kts 60°
2026-05-05 14:48 17.49433 -62.98223 126 ft 81 kts 57°
2026-05-05 14:48 17.49729 -62.97857 120 ft 38 kts 42°
2026-05-05 14:48 17.49735 -62.97836 119 ft 13 kts 236°
2026-05-05 14:48 17.49656 -62.97946 120 ft 24 kts 230°
2026-05-05 14:49 17.49531 -62.98101 121 ft 31 kts 232°
2026-05-05 14:49 17.49405 -62.98237 121 ft 15 kts 161°
2026-05-05 14:49 17.49354 -62.98180 121 ft 9 kts 98°
2026-05-05 14:49 17.49325 -62.98154 119 ft 2 kts 191°
2026-05-05 14:50 17.49321 -62.98155 119 ft 0 kts 189°
2026-05-05 14:58 17.49333 -62.98183 120 ft 11 kts 319°
2026-05-05 14:59 17.49396 -62.98257 123 ft 15 kts 259°
2026-05-05 14:59 17.49318 -62.98368 121 ft 21 kts 242°
2026-05-05 14:59 17.49278 -62.98414 122 ft 4 kts 85°
2026-05-05 14:59 17.49297 -62.98393 121 ft 0 kts 50°
2026-05-05 15:00 17.49364 -62.98309 123 ft 41 kts 51°
2026-05-05 15:00 17.49780 -62.97814 182 ft 81 kts 58°
2026-05-05 15:00 17.50126 -62.97349 399 ft 78 kts 61°
2026-05-05 15:01 17.50494 -62.96913 583 ft 93 kts 54°
2026-05-05 15:01 17.51137 -62.96627 865 ft 109 kts 17°
2026-05-05 15:01 17.51870 -62.96724 1268 ft 105 kts 346°
2026-05-05 15:01 17.52557 -62.97056 1522 ft 114 kts 339°
2026-05-05 15:02 17.53309 -62.97429 1756 ft 124 kts 344°
2026-05-05 15:02 17.54162 -62.97667 1998 ft 131 kts 354°
2026-05-05 15:02 17.55082 -62.97904 2253 ft 141 kts 352°
2026-05-05 15:02 17.56052 -62.98161 2451 ft 146 kts 352°
2026-05-05 15:03 17.57040 -62.98424 2657 ft 147 kts 352°
2026-05-05 15:03 17.58033 -62.98689 2837 ft 147 kts 352°
2026-05-05 15:03 17.59025 -62.98958 3047 ft 147 kts 352°
2026-05-05 15:03 17.60022 -62.99224 3292 ft 149 kts 352°
2026-05-05 15:04 17.61050 -62.99479 3475 ft 158 kts 354°
2026-05-05 15:04 17.62144 -62.99746 3486 ft 164 kts 351°
2026-05-05 15:04 17.63240 -63.00043 3506 ft 167 kts 349°
2026-05-05 15:04 17.64380 -63.00371 3533 ft 172 kts 349°
2026-05-05 15:05 17.66738 -63.00964 3502 ft 176 kts 352°
2026-05-05 15:05 17.67922 -63.01275 3477 ft 175 kts 351°
2026-05-05 15:05 17.69090 -63.01592 3480 ft 172 kts 350°
2026-05-05 15:06 17.70244 -63.01903 3487 ft 171 kts 350°
2026-05-05 15:06 17.71396 -63.02211 3496 ft 171 kts 351°
2026-05-05 15:06 17.72549 -63.02516 3487 ft 170 kts 351°
2026-05-05 15:06 17.73693 -63.02821 3497 ft 170 kts 351°
2026-05-05 15:07 17.74840 -63.03126 3508 ft 170 kts 351°
2026-05-05 15:07 17.75989 -63.03429 3497 ft 170 kts 351°
2026-05-05 15:07 17.77131 -63.03732 3493 ft 168 kts 352°
2026-05-05 15:07 17.78264 -63.04032 3488 ft 168 kts 351°
2026-05-05 15:08 17.79395 -63.04335 3487 ft 168 kts 352°
2026-05-05 15:08 17.80525 -63.04635 3490 ft 167 kts 352°
2026-05-05 15:08 17.81651 -63.04933 3506 ft 167 kts 352°
2026-05-05 15:08 17.82785 -63.05230 3515 ft 169 kts 351°
2026-05-05 15:09 17.83926 -63.05529 3503 ft 169 kts 351°
2026-05-05 15:09 17.85069 -63.05836 3490 ft 169 kts 350°
2026-05-05 15:09 17.86202 -63.06141 3492 ft 167 kts 352°
2026-05-05 15:09 17.87332 -63.06441 3497 ft 167 kts 352°
2026-05-05 15:10 17.88460 -63.06739 3491 ft 168 kts 352°
2026-05-05 15:10 17.89637 -63.07044 3243 ft 174 kts 351°
2026-05-05 15:10 17.90779 -63.07348 2992 ft 165 kts 351°
2026-05-05 15:10 17.91871 -63.07644 2745 ft 160 kts 351°
2026-05-05 15:11 17.92936 -63.07933 2500 ft 157 kts 352°
2026-05-05 15:11 17.93985 -63.08213 2255 ft 154 kts 352°
2026-05-05 15:11 17.95005 -63.08484 2014 ft 152 kts 352°
2026-05-05 15:11 17.96031 -63.08759 1799 ft 152 kts 353°
2026-05-05 15:12 17.97066 -63.09031 1565 ft 155 kts 353°
2026-05-05 15:12 17.98111 -63.09306 1313 ft 155 kts 352°
2026-05-05 15:12 17.99126 -63.09576 1215 ft 144 kts 351°
2026-05-05 15:12 18.00046 -63.09688 1136 ft 126 kts 18°
2026-05-05 15:13 18.00821 -63.09331 1019 ft 117 kts 37°
2026-05-05 15:13 18.01535 -63.08965 984 ft 113 kts 33°
2026-05-05 15:13 18.02257 -63.08607 813 ft 114 kts 29°
2026-05-05 15:13 18.02961 -63.08399 831 ft 97 kts 13°
2026-05-05 15:14 18.03634 -63.08485 772 ft 96 kts 343°
2026-05-05 15:14 18.04142 -63.08969 563 ft 106 kts 302°
2026-05-05 15:14 18.04267 -63.09749 200 ft 112 kts 254°
2026-05-05 15:14 18.04151 -63.10519 22 ft 97 kts 257°
2026-05-05 15:15 18.04064 -63.11101 21 ft 45 kts 263°
2026-05-05 15:15 18.04088 -63.11286 19 ft 18 kts 340°
2026-05-05 15:15 18.04140 -63.11237 20 ft 14 kts 81°
2026-05-05 15:15 18.04157 -63.11119 20 ft 13 kts 70°
2026-05-05 15:16 18.04234 -63.11125 19 ft 12 kts 278°
2026-05-05 15:16 18.04214 -63.11151 20 ft 4 kts 163°
2026-05-05 15:16 18.04195 -63.11147 20 ft 0 kts 172°
2026-05-05 15:20 18.04187 -63.11146 20 ft 5 kts 172°
2026-05-05 15:21 18.04151 -63.11184 20 ft 12 kts 270°
2026-05-05 15:21 18.04133 -63.11292 19 ft 15 kts 259°
2026-05-05 15:21 18.04211 -63.11328 20 ft 12 kts 345°
2026-05-05 15:21 18.04233 -63.11391 19 ft 13 kts 262°
2026-05-05 15:22 18.04211 -63.11488 19 ft 13 kts 237°
2026-05-05 15:22 18.04141 -63.11579 20 ft 18 kts 231°
2026-05-05 15:22 18.04068 -63.11679 20 ft 16 kts 245°
2026-05-05 15:22 18.04047 -63.11808 19 ft 19 kts 262°
2026-05-05 15:23 18.04040 -63.11857 19 ft 0 kts 261°
2026-05-05 15:23 18.04040 -63.11858 19 ft 1 kts 261°
2026-05-05 15:23 18.04025 -63.11908 20 ft 13 kts 238°
2026-05-05 15:23 18.03953 -63.11908 22 ft 19 kts 89°
2026-05-05 15:24 18.03995 -63.11594 20 ft 68 kts 82°
2026-05-05 15:24 18.04095 -63.11027 143 ft 88 kts 80°
2026-05-05 15:24 18.04437 -63.10488 380 ft 99 kts 32°
2026-05-05 15:24 18.05153 -63.10420 601 ft 110 kts
2026-05-05 15:25 18.05959 -63.10487 673 ft 127 kts
2026-05-05 15:25 18.06806 -63.10542 1000 ft 119 kts
2026-05-05 15:25 18.07685 -63.10607 1113 ft 134 kts
2026-05-05 15:25 18.08662 -63.10517 1166 ft 148 kts 13°
2026-05-05 15:26 18.09724 -63.10369 1189 ft 156 kts 23°
2026-05-05 15:26 18.10606 -63.09776 1199 ft 151 kts 55°
2026-05-05 15:26 18.10999 -63.08836 1116 ft 128 kts 88°
2026-05-05 15:26 18.10949 -63.07961 916 ft 114 kts 107°
2026-05-05 15:27 18.10795 -63.07449 757 ft 108 kts 107°
2026-05-05 15:27 18.10578 -63.06722 516 ft 101 kts 107°
2026-05-05 15:27 18.10385 -63.06051 298 ft 91 kts 105°
2026-05-05 15:27 18.10204 -63.05433 111 ft 87 kts 105°
2026-05-05 15:28 18.10039 -63.04860 11 ft 72 kts 108°
2026-05-05 15:28 18.09945 -63.04517 9 ft 18 kts 86°
2026-05-05 15:28 18.09941 -63.04527 9 ft 12 kts 289°
2026-05-05 15:28 18.09975 -63.04646 9 ft 22 kts 285°
2026-05-05 15:29 18.10036 -63.04758 11 ft 12 kts
2026-05-05 15:29 18.10081 -63.04747 11 ft 5 kts 14°
2026-05-05 15:29 18.10107 -63.04807 11 ft 12 kts 283°
2026-05-05 15:29 18.10146 -63.04850 11 ft 6 kts 17°
2026-05-05 15:30 18.10155 -63.04833 11 ft 5 kts 136°
2026-05-05 15:30 18.10145 -63.04826 11 ft 0 kts 155°